Ramona, CA

8:57 PM PDT on April 28, 2017 (GMT -0700)
Ramona

Weather History for KRNM - November, 2013

Change the Weather History Date:

Monday, November 4, 2013

  Actual Average Record
Temperature  
Mean Temperature 57 °F 59 °F  
Max Temperature 60 °F 75 °F 94 °F (1980)
Min Temperature 53 °F 43 °F 34 °F (1990)
Degree Days  
Heating Degree Days 8 7  
Month to date heating degree days 29 25  
Since 1 July heating degree days 181 144  
Cooling Degree Days 0 1  
Month to date cooling degree days 0 4  
Year to date cooling degree days 893 848  
Moisture  
Dew Point 45 °F    
Average Humidity 64    
Maximum Humidity 77    
Minimum Humidity 51    
Precipitation  
Precipitation 0.00 in 0.04 in 1.05 in (2011)
Month to date precipitation 0.00 0.23  
Year to date precipitation 6.21 12.85  
Since 1 July precipitation 1.71  
Snow  
Snow 0.00 in - - ()
Month to date snowfall 0.0  
Year to date snowfall 0.0  
Snow Depth 0.00 in    
Sea Level Pressure  
Sea Level Pressure 29.87 in    
Wind  
Wind Speed 5 mph (South)    
Max Wind Speed 10 mph    
Max Gust Speed 15 mph    
Visibility 8 miles    
Events Fog    
T = Trace of Precipitation, MM = Missing Value Source: NWS Daily Summary

Daily Weather History Graph

Daily Weather History Graph

Search for Another Location

Airport or City:

Trip Planner

Search our weather history database for the weather conditions in past years. The results will help you decide how hot, cold, wet, or windy it might be!

Date:

Astronomy

Nov. 04, 2013 Rise Set
Actual Time 6:08 AM PST 4:53 PM PST
Civil Twilight 5:42 AM PST 5:19 PM PST
Nautical Twilight 5:13 AM PST 5:48 PM PST
Astronomical Twilight 4:44 AM PST 6:17 PM PST
Moon 7:20 AM PST (11/4) 6:05 PM PST (11/4)
Length of Visible Light 11h 36m
Length of Day
10h 44m
New Moon, 2% of the Moon is Illuminated
Nov 4
New Moon
Nov 9
First Quarter
Nov 17
Full
Nov 25
Last Quarter
Dec 2
New

Hourly Weather History & Observations

Time (PST) Temp. Dew Point Humidity Pressure Visibility Wind Dir Wind Speed Gust Speed Precip Events Conditions
12:53 AM 55.0 °F 46.9 °F 74% 29.81 in 10.0 mi South 3.5 mph - N/A   Overcast
1:53 AM 54.0 °F 46.9 °F 77% 29.81 in 10.0 mi Calm Calm - N/A   Overcast
2:53 AM 54.0 °F 46.9 °F 77% 29.80 in 10.0 mi Calm Calm - N/A   Overcast
3:53 AM 54.0 °F 46.0 °F 75% 29.80 in 10.0 mi ESE 3.5 mph - N/A   Overcast
4:53 AM 53.1 °F 46.0 °F 77% 29.78 in 10.0 mi ESE 5.8 mph - N/A   Overcast
5:53 AM 54.0 °F 46.0 °F 75% 29.82 in 10.0 mi Calm Calm - N/A   Overcast
6:53 AM 54.0 °F 46.9 °F 77% 29.83 in 10.0 mi East 8.1 mph - N/A   Overcast
7:49 AM 53.6 °F 44.6 °F 72% 29.87 in 10.0 mi ESE 9.2 mph - N/A   Overcast
7:53 AM 54.0 °F 45.0 °F 72% 29.85 in 10.0 mi ESE 9.2 mph - N/A   Overcast
8:53 AM 55.0 °F 45.0 °F 69% 29.87 in 10.0 mi ESE 5.8 mph - N/A   Overcast
9:53 AM 59.0 °F 46.0 °F 62% 29.86 in 10.0 mi SSE 6.9 mph - N/A   Mostly Cloudy
10:53 AM 60.1 °F 43.0 °F 53% 29.85 in 10.0 mi South 10.4 mph - N/A   Overcast
11:53 AM 59.0 °F 45.0 °F 60% 29.83 in 10.0 mi South 9.2 mph - N/A   Overcast
12:53 PM 57.9 °F 46.9 °F 67% 29.83 in 10.0 mi SW 5.8 mph - N/A   Overcast
1:53 PM 59.0 °F 45.0 °F 60% 29.83 in 10.0 mi West 5.8 mph - N/A   Overcast
2:53 PM 59.0 °F 45.0 °F 60% 29.82 in 10.0 mi NW 3.5 mph - N/A   Overcast
3:53 PM 59.0 °F 45.0 °F 60% 29.82 in 10.0 mi Calm Calm - N/A   Overcast
4:53 PM 57.0 °F 46.9 °F 69% 29.83 in 10.0 mi West 3.5 mph - N/A   Overcast
5:53 PM 52.0 °F 46.0 °F 80% 29.86 in 10.0 mi Calm Calm - N/A   Overcast
6:53 PM 54.0 °F 48.0 °F 80% 29.88 in 10.0 mi WNW 4.6 mph - N/A   Overcast
7:24 PM 51.8 °F 48.2 °F 88% 29.90 in 10.0 mi WNW 4.6 mph - N/A   Mostly Cloudy
7:53 PM 51.1 °F 48.0 °F 89% 29.89 in 10.0 mi Calm Calm - N/A   Overcast
8:53 PM 48.9 °F 46.0 °F 90% 29.91 in 9.0 mi WNW 3.5 mph - N/A   Overcast
9:44 PM 48.2 °F 44.6 °F 87% 29.93 in 6.0 mi Calm Calm - N/A   Scattered Clouds
9:53 PM 48.0 °F 45.0 °F 89% 29.92 in 7.0 mi Calm Calm - N/A   Scattered Clouds
10:01 PM 48.2 °F 44.6 °F 87% 29.94 in 9.0 mi Calm Calm - N/A   Mostly Cloudy
10:46 PM 44.6 °F 42.8 °F 93% 29.95 in 1.8 mi Calm Calm - N/A   Overcast
10:53 PM 43.0 °F 42.1 °F 97% 29.94 in 2.5 mi Calm Calm - N/A   Overcast
11:02 PM 42.8 °F 42.8 °F 100% 29.94 in 1.0 mi Calm Calm - N/A   Overcast
11:08 PM 42.8 °F 42.8 °F 100% 29.94 in 0.2 mi Calm Calm - N/A Fog Fog
11:24 PM 42.8 °F 42.8 °F 100% 29.94 in 0.5 mi Calm Calm - N/A Fog Fog
11:36 PM 41.0 °F 41.0 °F 100% 29.94 in 0.8 mi Calm Calm - N/A   Overcast
11:53 PM 43.0 °F 42.1 °F 97% 29.93 in 1.0 mi Calm Calm - N/A   Overcast
11:56 PM 44.6 °F 42.8 °F 93% 29.94 in 2.5 mi Calm Calm - N/A   Overcast